FW2460 Weather Reports


time (UTC)temp
F
wind
direction
speed
knots
gust
knots
rain 1hr
in
rain 24hr
in
rain mn
in
humidity
%
barometer
mb
20260505124553 62 299 13.9 20.9 0.00 0.00 0.00 31 1002.3
20260505123053 63 294 17.4 26.9 0.00 0.00 0.00 27 1002.3
20260505121610 66 298 17.4 22.6 0.00 0.00 0.00 16 1002.2
20260505120035 67 292 14.8 19.1 0.00 0.00 0.00 15 1001.9
20260505114535 67 281 13.9 20.0 0.00 0.00 0.00 15 1001.6
20260505113032 68 292 14.8 19.1 0.00 0.00 0.00 13 1001.1
20260505111537 69 270 13.9 20.0 0.00 0.00 0.00 13 1000.6
20260505101525 70 267 15.6 21.7 0.00 0.00 0.00 13 1000.3
20260505100033 69 250 14.8 22.6 0.00 0.00 0.00 14 1000.4
20260505094521 70 229 13.9 22.6 0.00 0.00 0.00 13 1000.3
20260505093026 71 257 14.8 23.5 0.00 0.00 0.00 12 1000.4
20260505091518 71 273 14.8 22.6 0.00 0.00 0.00 12 1000.5
20260505090017 71 253 12.2 19.1 0.00 0.00 0.00 12 1000.7
20260505084518 72 259 12.2 18.2 0.00 0.00 0.00 11 1000.8
20260505083020 71 279 12.2 18.2 0.00 0.00 0.00 12 1000.6
20260505081516 70 236 11.3 15.6 0.00 0.00 0.00 14 1000.7
20260505080014 69 246 10.4 13.0 0.00 0.00 0.00 15 1000.9
20260505074510 68 229 8.7 12.2 0.00 0.00 0.00 15 1001.2
20260505073007 68 238 7.0 10.4 0.00 0.00 0.00 16 1001.4
20260505071502 68 209 6.1 9.6 0.00 0.00 0.00 16 1001.5
20260505070104 69 225 6.1 9.6 0.00 0.00 0.00 15 1001.6
20260505064607 70 244 7.0 11.3 0.00 0.00 0.00 15 1001.7
20260505063055 70 233 7.8 11.3 0.00 0.00 0.00 15 1001.7
20260505061554 70 209 7.0 9.6 0.00 0.00 0.00 15 1001.8
20260505060051 71 219 7.0 10.4 0.00 0.00 0.00 14 1002.1
20260505054616 72 217 7.8 12.2 0.00 0.00 0.00 13 1002.0
20260505053051 71 217 7.8 11.3 0.00 0.00 0.00 14 1002.1
20260505051548 70 200 7.0 9.6 0.00 0.00 0.00 14 1002.0
20260505041546 71 241 5.2 8.7 0.00 0.00 0.00 13 1002.3
20260505040028 71 213 7.0 8.7 0.00 0.00 0.00 13 1002.3
20260505034524 72 231 8.7 13.0 0.00 0.00 0.00 12 1002.4
20260505033023 73 240 8.7 12.2 0.00 0.00 0.00 12 1002.2
20260505031527 73 232 9.6 12.2 0.00 0.00 0.00 12 1002.3
20260505030012 74 252 8.7 11.3 0.00 0.00 0.00 11 1002.1
20260505024507 75 238 7.8 12.2 0.00 0.00 0.00 11 1001.9
20260505023002 76 237 10.4 15.6 0.00 0.00 0.00 10 1001.6
20260505021600 77 226 11.3 18.2 0.00 0.00 0.00 9 1001.7
20260505014548 78 238 11.3 15.6 0.00 0.00 0.00 9 1001.8
20260505013046 78 226 10.4 18.2 0.00 0.00 0.00 9 1001.7
20260505011540 80 193 13.0 17.4 0.00 0.00 0.00 9 1001.5
20260505010054 81 232 14.8 21.7 0.00 0.00 0.00 8 1001.7
20260505004532 81 205 13.9 20.9 0.00 0.00 0.00 8 1001.3
20260505003030 82 238 17.4 22.6 0.00 0.00 0.00 9 1001.6
20260505001525 83 215 20.0 26.9 0.00 0.00 0.00 7 1001.4
20260505000020 83 250 20.0 28.7 0.00 0.00 0.00 6 1001.8
20260504234518 84 248 15.6 24.3 0.00 0.00 0.00 6 1001.6
20260504233015 84 213 19.1 31.3 0.00 0.00 0.00 5 1001.8
20260504231511 85 214 20.9 29.5 0.00 0.00 0.00 5 1001.7
20260504230011 85 238 18.2 33.0 0.00 0.00 0.00 4 1001.7
20260504224510 86 237 20.9 35.6 0.00 0.00 0.00 3 1001.6
20260504223004 87 239 18.2 28.7 0.00 0.00 0.00 4 1001.8
20260504221502 87 247 16.5 26.1 0.00 0.00 0.00 5 1001.8
20260504214557 86 248 17.4 23.5 0.00 0.00 0.00 8 1002.4
20260504213101 86 216 12.2 21.7 0.00 0.00 0.00 9 1002.7
20260504211558 86 259 11.3 24.3 0.00 0.00 0.00 9 1002.9
20260504210100 86 246 12.2 21.7 0.00 0.00 0.00 9 1003.5
20260504204551 86 242 16.5 26.1 0.00 0.00 0.00 9 1003.7
20260504203046 86 234 17.4 28.7 0.00 0.00 0.00 8 1004.0
20260504201547 86 290 17.4 23.5 0.00 0.00 0.00 7 1004.4
20260504200051 86 260 13.0 20.0 0.00 0.00 0.00 10 1004.6
20260504194539 85 246 13.0 21.7 0.00 0.00 0.00 12 1004.5
20260504193042 85 261 9.6 16.5 0.00 0.00 0.00 12 1004.7
20260504191537 85 289 13.9 20.9 0.00 0.00 0.00 12 1005.0
20260504190032 85 292 11.3 26.1 0.00 0.00 0.00 12 1005.1
20260504184536 85 248 16.5 26.9 0.00 0.00 0.00 13 1005.6
20260504183033 84 291 17.4 23.5 0.00 0.00 0.00 14 1005.7
20260504181525 83 340 16.5 25.2 0.00 0.00 0.00 14 1006.0
20260504180025 84 280 19.1 26.1 0.00 0.00 0.00 14 1006.3
20260504174520 82 242 20.0 31.3 0.00 0.00 0.00 16 1006.7
20260504173017 82 269 14.8 24.3 0.00 0.00 0.00 17 1006.9
20260504171513 80 247 16.5 25.2 0.00 0.00 0.00 21 1007.2